SL-16 DEB, 22419

Orbit data source: Space-Track

SL-16 DEB, 22419 is space debris in LEO originally from a launch on Fri, 25 Dec 1992 UTC launched from the Tyuratam Missile And Space Complex (TTMTR). Debris objects in space refer to the collection of defunct objects orbiting the Earth. Examples of debris include non-operational satellites, rocket bodies, and fragments generated from explosions, collisions, or faulty payload assembly.

Loading next visibility...
Identifier
22419, 1992-093DL
Orbit
LEO
Country
Flag of CISCIS
Related business
Manufacturer
Unknown
Mission
Spacecraft
Bus & Motor
Unknown
Mass
Unknown
Launch date (UTC)
1992-12-25 (33 years ago)
Launch vehicle
Unknown
Launch site
Tyuratam Missile And Space Complex (TTMTR)
Object type
Payload
Rocket body
Debris
Shape & HBR
Unknown shape, 0.1 m
Radar Cross Section
Medium (>0.1 m² and <1 m²)

Expand to show TLE details & history
Last TLE update: 2 days ago

TLE from 2 days ago
0 SL-16 DEB
1 22419U 92093DL  26171.36228916  .00000139  00000-0  12716-3 0  9998
2 22419  71.1775 159.7545 0105836 190.1341 169.7641 13.96107380701534
Epoch: 2026-06-20T08:41Z
TLE epoch observation values (Epoch: 2026-06-20T08:41:41.783Z)
Latitude
-0.00002°
Longitude
120.7524°
Altitude
985.612 km
Speed
7.321 km/s
True Right ascension
10h 39m 01s
True Declination
0° 00' 00"
Sunlit
Object was in daylight at epoch
Visualization orbit readout
Latitude
Unknown
Longitude
Unknown
Altitude
Unknown
Speed
Unknown
Apparent Right ascension
Unknown
Apparent Declination
Unknown
Sunlit
N/A
Visualization observer readout
Local Sidereal Time
01:06:52
Azimuth
Unknown
Elevation
Unknown
Doppler factor
Unknown
Orbital elements
Apogee altitude
982.316 km
Perigee altitude
828.148 km
Semi-major axis
7,283.369 km
Eccentricity
0.01058
Inclination
71.1775°
RAAN
159.7545°
Arg. of periapsis
190.1341°
True anomaly
169.97684°
Mean anomaly
169.7641°
Eccentric anomaly
169.87075°
Mean motion
3.49176 °/min
Orbital period
103.1 mins
BSTAR
0.00012716
Loading maneuver chart data...
Computing Atmospheric mass density...
Loading historical data...
Loading historical data...
Loading historical data...
Loading historical data...
Loading historical data...
Loading historical data...
Loading historical data...

Documentation

Showing up to 5 results
|